Location: Lecco
(45.8566°N, 9.3977°E)
Time: 12:37:00
(UTC+02:00)

Vanguard 3 - All Passes

Search period start: 07 August 2020 00:00
Search period end: 17 August 2020 00:00
Orbit: 509 x 3261 km, 33.3° (Epoch: 06 August)

Date Brightness Start Highest point End Pass type
(mag) Time Alt. Az. Time Alt. Az. Time Alt. Az.
07 Aug - 04:34:26 10° SSE 04:41:40 13° SE 04:48:08 10° ESE visible
07 Aug - 06:41:09 10° SSW 06:55:16 30° SSE 07:05:10 10° ESE daylight
07 Aug - 08:55:00 10° WSW 09:08:37 41° S 09:16:53 10° ESE daylight
07 Aug - 11:10:56 10° WSW 11:20:44 33° SSW 11:26:46 10° SE daylight
07 Aug - 13:28:36 10° WSW 13:31:03 12° SW 13:33:10 10° SSW daylight
08 Aug - 05:26:40 10° SSW 05:39:52 24° SSE 05:50:12 10° ESE visible
08 Aug - 07:38:30 10° SW 07:53:37 39° SSE 08:03:23 10° ESE daylight
08 Aug - 09:53:59 10° WSW 10:06:36 41° S 10:14:07 10° ESE daylight
08 Aug - 12:10:34 10° WSW 12:17:54 23° SSW 12:22:53 10° SSE daylight
09 Aug - 04:14:09 10° S 04:24:28 17° SE 04:33:30 10° ESE visible
09 Aug - 06:22:39 10° SW 06:38:14 35° SSE 06:49:17 10° E daylight
09 Aug - 08:37:01 10° WSW 08:51:55 44° S 09:01:00 10° ESE daylight
09 Aug - 10:53:24 10° W 11:04:14 35° SSW 11:10:53 10° SE daylight
09 Aug - 13:11:53 10° WSW 13:14:33 12° SW 13:16:51 10° SSW daylight
10 Aug - 05:07:52 10° SSW 05:22:40 28° SSE 05:34:23 10° E visible
10 Aug - 07:20:20 10° SW 07:36:42 43° S 07:47:25 10° ESE daylight
10 Aug - 09:36:13 10° WSW 09:49:58 43° S 09:58:12 10° ESE daylight
10 Aug - 11:53:17 10° W 12:01:22 23° SW 12:06:51 10° SSE daylight
11 Aug - 03:54:46 10° S 04:07:08 21° SE 04:18:02 10° ESE visible
11 Aug - 06:04:20 10° SW 06:21:05 39° SSE 06:33:15 10° E daylight
11 Aug - 08:19:03 10° WSW 08:35:05 47° S 08:45:02 10° ESE daylight
11 Aug - 10:35:48 10° W 10:47:38 35° SSW 10:54:55 10° SE daylight
11 Aug - 12:55:07 10° WSW 12:57:57 12° SW 13:00:24 10° SSW daylight
12 Aug - 02:45:17 10° SSE 02:51:51 13° SE 02:58:13 10° ESE visible
12 Aug - 04:49:23 10° SSW 05:05:19 32° SSE 05:18:18 10° E visible
12 Aug - 07:02:16 10° SW 07:19:38 47° S 07:31:20 10° ESE daylight
12 Aug - 09:18:24 10° WSW 09:33:13 45° SSW 09:42:14 10° SE daylight
12 Aug - 11:35:55 10° W 11:44:43 23° SW 11:50:44 10° SSE daylight
13 Aug - 03:35:56 10° S 03:49:39 24° SE 04:02:06 10° E visible
13 Aug - 05:46:12 10° SW 06:03:48 43° SSE 06:17:03 10° E visible
13 Aug - 08:01:09 10° WSW 08:18:07 49° S 08:28:57 10° ESE daylight
13 Aug - 10:18:09 10° W 10:30:54 36° SSW 10:38:51 10° SE daylight
13 Aug - 12:38:23 10° WSW 12:41:15 11° SW 12:43:45 10° SSW daylight
14 Aug - 02:25:05 10° SSE 02:34:20 15° SE 02:43:25 10° ESE visible
14 Aug - 04:31:10 10° SSW 04:47:51 36° SSE 05:02:00 10° E visible
14 Aug - 06:44:20 10° WSW 07:02:27 50° S 07:15:08 10° ESE daylight
14 Aug - 09:00:35 10° W 09:16:19 45° SSW 09:26:08 10° SE daylight
14 Aug - 11:18:30 10° W 11:27:58 23° SW 11:34:29 10° S daylight
15 Aug - 03:17:31 10° SSW 03:32:05 27° SE 03:45:50 10° E visible
15 Aug - 05:28:16 10° SW 05:46:25 46° SSE 06:00:42 10° E visible
15 Aug - 07:43:18 10° WSW 08:01:03 51° S 08:12:46 10° ESE daylight
15 Aug - 10:00:27 10° W 10:14:01 35° SSW 10:22:41 10° SSE daylight
15 Aug - 12:21:45 10° WSW 12:24:25 11° SW 12:26:49 10° SW daylight
16 Aug - 02:05:59 10° S 02:16:44 18° SE 02:27:40 10° E visible
16 Aug - 04:13:13 10° SSW 04:30:18 39° SSE 04:45:31 10° E visible
16 Aug - 06:26:30 10° WSW 06:45:09 52° S 06:58:48 10° ESE daylight
16 Aug - 08:42:47 10° W 08:59:19 46° SSW 09:09:56 10° SE daylight
16 Aug - 11:01:02 10° W 11:11:04 23° SW 11:18:06 10° S daylight
